DW3277 Weather Reports


time (UTC)temp
F
wind
direction
speed
knots
gust
knots
rain 1hr
in
rain 24hr
in
rain mn
in
humidity
%
barometer
mb
20220629031543 72 174 0.0 0.0 0.00 0.00 0.00 45 1011.1
20220629030044 73 174 0.0 0.0 0.00 0.00 0.00 44 1011.1
20220629024541 74 174 0.0 0.0 0.00 0.00 0.00 40 1011.0
20220629023040 76 174 0.0 0.0 0.00 0.00 0.00 38 1010.9
20220629021544 78 174 0.0 0.0 0.00 0.00 0.00 34 1010.7
20220629020038 80 174 0.9 0.0 0.00 0.00 0.00 32 1010.6
20220629014538 82 178 0.9 0.0 0.00 0.00 0.00 30 1010.3
20220629013037 82 176 2.6 0.0 0.00 0.00 0.00 27 1010.1
20220629011536 83 164 2.6 0.0 0.00 0.00 0.00 25 1010.1
20220629010039 84 153 2.6 0.0 0.00 0.00 0.00 25 1010.1
20220629004535 84 160 3.5 0.0 0.00 0.00 0.00 25 1010.0
20220629003040 84 150 3.5 0.0 0.00 0.00 0.00 25 1009.9
20220629001534 84 292 4.3 0.0 0.00 0.00 0.00 26 1010.0
20220629000033 84 165 3.5 0.0 0.00 0.00 0.00 27 1009.9
20220628234533 85 264 1.7 0.0 0.00 0.00 0.00 26 1009.8
20220628233031 84 169 3.5 0.0 0.00 0.00 0.00 26 1010.2
20220628231531 85 169 4.3 0.0 0.00 0.00 0.00 28 1009.9
20220628230034 86 171 3.5 0.0 0.00 0.00 0.00 27 1009.1
20220628224531 87 167 5.2 0.0 0.00 0.00 0.00 26 1009.4
20220628223030 87 191 5.2 0.0 0.00 0.00 0.00 24 1008.9
20220628221531 88 156 6.1 0.0 0.00 0.00 0.00 26 1008.9
20220628220029 89 169 6.1 0.0 0.00 0.00 0.00 23 1009.0
20220628214530 89 163 5.2 0.0 0.00 0.00 0.00 23 1009.0
20220628213027 89 160 4.3 0.0 0.00 0.00 0.00 23 1008.9
20220628211529 89 179 4.3 0.0 0.00 0.00 0.00 24 1009.0
20220628210027 89 169 3.5 0.0 0.00 0.00 0.00 24 1009.0
20220628204526 89 170 3.5 0.0 0.00 0.00 0.00 23 1009.0
20220628203026 89 171 4.3 0.0 0.00 0.00 0.00 21 1009.0
20220628201524 89 167 4.3 0.0 0.00 0.00 0.00 19 1009.0
20220628200022 89 169 3.5 0.0 0.00 0.00 0.00 23 1009.1
20220628194521 89 196 3.5 0.0 0.00 0.00 0.00 23 1009.2
20220628193019 88 184 2.6 0.0 0.00 0.00 0.00 28 1009.3
20220628191521 88 196 2.6 0.0 0.00 0.00 0.00 31 1009.3
20220628190016 87 188 1.7 0.0 0.00 0.00 0.00 34 1009.3
20220628184517 88 198 0.9 0.0 0.00 0.00 0.00 34 1009.5
20220628183012 87 198 0.9 0.0 0.00 0.00 0.00 38 1009.6
20220628181508 85 199 0.9 0.0 0.00 0.00 0.00 41 1009.6
20220628180005 84 198 0.0 0.0 0.00 0.00 0.00 48 1009.8
20220628174502 83 198 0.0 0.0 0.00 0.00 0.00 51 1009.8
20220628173057 81 198 0.0 0.0 0.00 0.00 0.00 57 1009.9
20220628171556 81 198 0.0 0.0 0.00 0.00 0.00 56 1009.8
20220628170102 79 198 0.0 0.0 0.00 0.00 0.00 59 1010.1
20220628164548 77 198 0.0 0.0 0.00 0.00 0.00 62 1010.2
20220628163045 77 198 0.0 0.0 0.00 0.00 0.00 62 1010.0
20220628161545 76 198 0.0 0.0 0.00 0.00 0.00 63 1010.2
20220628160041 75 198 0.0 0.0 0.00 0.00 0.00 64 1010.3
20220628154536 74 198 0.0 0.0 0.00 0.00 0.00 66 1010.2
20220628153039 72 198 0.0 0.0 0.00 0.00 0.00 68 1010.5
20220628151528 71 198 0.0 0.0 0.00 0.00 0.00 70 1010.6
20220628150025 69 198 0.0 0.0 0.00 0.00 0.00 75 1010.8
20220628144521 68 198 0.0 0.0 0.00 0.00 0.00 76 1010.6
20220628143020 66 198 0.0 0.0 0.00 0.00 0.00 81 1010.6
20220628141531 65 198 0.0 0.0 0.00 0.00 0.00 83 1010.6
20220628140025 63 198 0.0 0.0 0.00 0.00 0.00 85 1010.5
20220628134519 62 198 0.0 0.0 0.00 0.00 0.00 86 1010.3
20220628133016 62 198 0.0 0.0 0.00 0.00 0.00 86 1010.2
20220628131517 62 198 0.0 0.0 0.00 0.00 0.00 86 1010.0
20220628130023 61 198 0.0 0.0 0.00 0.00 0.00 87 1010.2
20220628124515 61 198 0.9 0.0 0.00 0.00 0.00 87 1009.9
20220628123015 60 198 0.0 0.0 0.00 0.00 0.00 87 1009.5
20220628121509 61 198 0.0 0.0 0.00 0.00 0.00 87 1009.3
20220628120008 61 198 0.0 0.0 0.00 0.00 0.00 87 1009.0
20220628114513 61 198 0.0 0.0 0.00 0.00 0.00 86 1009.2
20220628113006 61 198 0.0 0.0 0.00 0.00 0.00 86 1009.3
20220628111508 62 198 0.0 0.0 0.00 0.00 0.00 86 1009.2
20220628110012 62 198 0.0 0.0 0.00 0.00 0.00 86 1009.3
20220628104604 62 198 0.0 0.0 0.00 0.00 0.00 85 1009.2
20220628103059 63 198 0.0 0.0 0.00 0.00 0.00 85 1009.1
20220628101616 63 198 0.0 0.0 0.00 0.00 0.00 85 1009.2
20220628100057 63 198 0.0 0.0 0.00 0.00 0.00 84 1009.1
20220628094555 63 198 0.0 0.0 0.00 0.00 0.00 84 1009.2
20220628093053 64 198 0.0 0.0 0.00 0.00 0.00 84 1009.0
20220628091551 64 198 0.0 0.0 0.00 0.00 0.00 83 1008.7
20220628090050 64 198 0.0 0.0 0.00 0.00 0.00 82 1008.8
20220628084550 64 198 0.0 0.0 0.00 0.00 0.00 81 1008.9
20220628083055 65 198 0.0 0.0 0.00 0.00 0.00 82 1009.0
20220628081544 65 198 0.0 0.0 0.00 0.00 0.00 80 1008.9
20220628080042 66 198 0.0 0.0 0.00 0.00 0.00 80 1008.8
20220628074546 67 198 0.0 0.0 0.00 0.00 0.00 80 1008.7
20220628073037 67 198 0.0 0.0 0.00 0.00 0.00 79 1008.6
20220628071535 67 198 0.0 0.0 0.00 0.00 0.00 78 1008.5
20220628070034 68 198 0.0 0.0 0.00 0.00 0.00 78 1008.5
20220628064535 68 198 0.0 0.0 0.00 0.00 0.00 76 1008.5
20220628063034 69 198 0.0 0.0 0.00 0.00 0.00 76 1008.2
20220628061534 70 198 0.0 0.0 0.00 0.00 0.00 75 1007.9
20220628060032 70 198 0.0 0.0 0.00 0.00 0.00 73 1007.9
20220628054530 71 198 0.0 0.0 0.00 0.00 0.00 72 1007.9
20220628053034 72 198 0.0 0.0 0.00 0.00 0.00 72 1008.1
20220628051530 72 198 0.0 0.0 0.00 0.00 0.00 72 1008.1
20220628050029 73 198 0.0 0.0 0.00 0.00 0.00 70 1008.3
20220628044533 73 198 0.0 0.0 0.00 0.00 0.00 67 1008.2
20220628043030 74 198 0.0 0.0 0.00 0.00 0.00 65 1008.0
20220628041529 75 198 0.0 0.0 0.00 0.00 0.00 63 1007.8
20220628040027 77 198 0.0 0.0 0.00 0.00 0.00 61 1007.5
20220628034527 78 198 0.0 0.0 0.00 0.00 0.00 57 1007.3
20220628033027 80 198 0.0 0.0 0.00 0.00 0.00 55 1007.2